Voltar ao catálogo

STARLINK-11265

AtivoComunicaçõesVLEO
NORAD 60909·PAYLOAD·🇺🇸 United States

Lançado Aug 31, 2024 de Cape Canaveral Space Force Station

Loading…

Próximas Passagens (próximas 24 horas)

TLE

AtualizadoSource: CelesTrak SupGP

Época: Sep 15, 2026, 02:39 UTC

1 60909C 24154G   26258.11090278  .00048147  00000+0  39617-3 0  2581
2 60909  53.1576 277.8475 0001124  98.5044 137.2999 15.69711663    17

Acompanhe STARLINK-11265 em tempo real com AllMySat

Download on the App Store